Back to catalog

BS-2B

YURI 2B

AliveCommunicationsGEO
NORAD 16597·PAYLOAD·🇯🇵 Japan

Launched Feb 12, 1986 from Tanegashima Space Center

Loading…

TLE

FreshSource: Space-Track

Epoch: Sep 13, 2026, 17:41 UTC

1 16597U 86016A   26256.73730788 -.00000055  00000-0  00000-0 0  9994
2 16597  12.1684 331.7102 0015746 229.3481 145.7355  0.99287166129001

Track BS-2B in real time with AllMySat

Download on the App Store